Regional Weather Roundup
Issued by NWS

Home | Current Version | Previous Version | Text Only | Print | Product List | Glossary Off
Versions: 1 2 3 4 5 6 7 8 9 10 11 12 13 14 15 16 17 18 19 20 21 22 23 24 25 26 27 28 29 30 31 32 33 34 35 36 37 38 39 40 41 42 43 44 45 46 47 48 49 50

000
ASUS43 KMKX 302021
RWRWI

WISCONSIN REGIONAL WEATHER ROUNDUP
NATIONAL WEATHER SERVICE MILWAUKEE/SULLIVAN WI
300 PM CDT SUN APR 30 2017

NOTE: "FAIR" INDICATES FEW OR NO CLOUDS BELOW 12,000 FEET WITH NO
SIGNIFICANT WEATHER AND/OR OBSTRUCTIONS TO VISIBILITY.

WIZ001-002-006>008-014>016-023>028-302100-
NORTHWEST WISCONSIN

CITY           SKY/WX    TMP DP  RH WIND       PRES   REMARKS
SUPERIOR ARPT  CLOUDY    40  33  77 E15G23    30.06F WCI  31
ASHLAND        CLOUDY    42  31  64 NE23      30.05F
HAYWARD        LGT RAIN  42  33  70 NE17G23   29.99F
SIREN          CLOUDY    48  29  48 NE18G28   29.96F
CUMBERLAND     CLOUDY    43  32  65 N18       29.93F
RICE LAKE      CLOUDY    48  32  54 NE13G18   29.93F
CHETEK         CLOUDY    49  31  50 NE10G23   29.92F
LADYSMITH      CLOUDY    51  31  47 NE16      29.93F
EAU CLAIRE     CLOUDY    50  35  56 NE15G23   29.88F
MENOMONIE      CLOUDY    49  33  53 NE13G23   29.89F
NEW RICHMOND   CLOUDY    45  34  65 NE20G25   29.90F
OSCEOLA        CLOUDY    46  36  69 NE14      29.94F
$$

WIZ003>005-009-010-017-018-302100-
NORTH CENTRAL WISCONSIN

CITY           SKY/WX    TMP DP  RH WIND       PRES   REMARKS
MANITOWISH WTR CLOUDY    50  25  38 NE14G21   29.95F
ARBOR VITAE    CLOUDY    52  25  35 NE9       29.93F
WOODRUFF       CLOUDY    52  25  35 NE9       29.93F
RHINELANDER    CLOUDY    49  30  48 E14       29.94F
EAGLE RIVER    CLOUDY    50  20  30 E15G22    29.94F
LAND O LAKES   CLOUDY    52  20  28 NE13G18   29.97F
PHILLIPS       CLOUDY    50  28  42 E12G21    29.92F
TOMAHAWK       CLOUDY    48  31  51 E9G17     29.93F
MEDFORD        CLOUDY    47  34  61 E17       29.89F
MERRILL        CLOUDY    47  35  61 E10G18    29.92F
$$

WIZ029-030-035-036-043>047-302100-
CENTRAL WISCONSIN

CITY           SKY/WX    TMP DP  RH WIND       PRES   REMARKS
WAUSAU         CLOUDY    45  36  70 E10       29.90F
MOSINEE        CLOUDY    43  37  81 NE21G26   29.91F
MARSHFIELD     CLOUDY    46  35  65 E18G28    29.89R
STEVENS POINT  CLOUDY    39  35  84 E17G25    29.91S WCI  30
WAUPACA        CLOUDY    42  37  83 NE12G18   29.93S
WAUTOMA        CLOUDY    42  37  82 NE15      29.90S
WISC RAPIDS    CLOUDY    43  37  79 E17G26    29.92R
CAMP DOUGLAS   CLOUDY    45  37  76 NE18      29.87S
$$

WIZ011>013-019>022-031-037>040-048>050-302100-
NORTHEAST WISCONSIN

CITY           SKY/WX    TMP DP  RH WIND       PRES   REMARKS
ANTIGO         CLOUDY    42  36  78 E21G26    29.93F
SHAWANO        CLOUDY    41  37  86 NE17G25   29.96F
OCONTO         NOT AVBL
STURGEON BAY   MIX PCPN  37  35  92 NE16G24   29.98F WCI  28
GREEN BAY      CLOUDY    40  39  97 NE21G29   29.95F WCI  30
MANITOWOC      CLOUDY    39  37  92 NE16G23   29.93F WCI  30
APPLETON       CLOUDY    39  37  93 NE16G25   29.91F WCI  30
CLINTONVILLE   CLOUDY    39  34  81 E15G25    29.95R WCI  31
OSHKOSH        CLOUDY    41  37  86 NE18G24   29.89F
$$

WIZ032>034-041-042-053>061-302100-
SOUTHWEST WISCONSIN

CITY           SKY/WX    TMP DP  RH WIND       PRES   REMARKS
LA CROSSE      CLOUDY    46  39  76 NE14G23   29.85F
SPARTA         CLOUDY    44  39  84 NE12      29.87F
VIROQUA        CLOUDY    42  38  88 E18       29.83F
BOSCOBEL       CLOUDY    46  39  76 NE10G20   29.80F
PRAIRIE DU CHI CLOUDY    45  38  75 NE13G18   29.79F
PLATTEVILLE    CLOUDY    45  43  93 NE20G25   29.79F
$$

WIZ056-057-062-063-064-067-068-302100-
SOUTH CENTRAL WISCONSIN

CITY           SKY/WX    TMP DP  RH WIND       PRES   REMARKS
REEDSBURG      NOT AVBL
BARABOO/DELLS  CLOUDY    42  38  85 E13G23    29.85F
LONE ROCK      CLOUDY    45  39  79 E15       29.84F
MINERAL POINT  CLOUDY    45  43  93 E14G24    29.80S
MADISON        CLOUDY    43  39  86 E17G24    29.85S
MIDDLETON      CLOUDY    45  41  86 NE13G23   29.84F
WATERTOWN      CLOUDY    43  42  98 NE13G18   29.85S
MONROE         CLOUDY    43  41  93 NE15G22   29.80S
JANESVILLE     CLOUDY    48  45  87 NE21      29.78F
$$

WIZ051-052-058>065-066-070>072-302100-
SOUTHEAST WISCONSIN

CITY           SKY/WX    TMP DP  RH WIND       PRES   REMARKS
MILWAUKEE      DRIZZLE   42  41  96 NE16G29   29.85F FOG
WAUKESHA       CLOUDY    39  39 100 NE17      29.85F WCI  30
MILWAUKEE/TIMM CLOUDY    41  37  87 NE16G25   29.87F
RACINE         CLOUDY    42  40  92 NE20G30   29.84F
KENOSHA        CLOUDY    44  42  93 NE16G23   29.84F
FOND DU LAC    LGT RAIN  42  37  82 NE15G26   29.90S
SHEBOYGAN      LGT RAIN  40  38  93 NE24G32   29.90F FOG     WCI  29
WEST BEND      CLOUDY    41  39  93 NE20G28   29.86F
JUNEAU         CLOUDY    42  39  91 NE14G22   29.87F
$$

LSZ147-162-302100-
LAKE SUPERIOR

STATION/POSITION TIME  TEMP    WIND        PRES    WAVE
                       AIR SEA DIR/SP/G            HT/PER
                 (UTC) (F)     (DEG/KT/KT) (MB)    (FT/S)
DEVILS ISLAND    2000   38      50/ 22/ 24 1019.0F
PORT WING        2001   42      50/ 22/ 25 1017.3F
SAXON HARBOR     1930   39      50/ 15/ 18 1017.6F
$$

LMZ867-665-643>646-302100-
LAKE MICHIGAN

STATION/POSITION TIME  TEMP    WIND        PRES    WAVE
                       AIR SEA DIR/SP/G            HT/PER
                 (UTC) (F)     (DEG/KT/KT) (MB)    (FT/S)
CHAMBERS ISLAND  1940   37      40/ 14/ 19 1015.9F
N MID LAKE BUOY  1950   36 37   60/ 21/ 25 1017.2F   5/ 6
NORTHPORT PIER   1940   36      60/ 17/ 26 1016.3F
KEWAUNEE LAKESHO 1954   38      40/ 21/ 27 1014.0F
SHEBOYGAN LAKESH 2000   39      30/ 25/ 28 1012.6F
PORT WASHINGTON  1930   41      40/ 18/ 23 1013.2F
MILWAUKEE LAKESH 2000   40      20/ 18/ 21   N/A
S MID LAKE BUOY  1950   41 41   30/ 17/ 19 1010.6R   4/ 5
KENOSHA   LAKESH 2000   41      30/ 22/ 26 1010.5
$$

TC  - TEMPERATURE IN CELSIUS
VSB - VISIBILITY IN STATUTE MILES
WCI - WIND CHILL INDEX
HX  - HEAT INDEX





USA.gov is the U.S. government's official web portal to all federal, state and local government web resources and services.